Miscellaneous Local Product
Issued by NWS North Platte, NE

Home | Current Version | Previous Version | Text Only | Print | Product List | Glossary On
Versions: 1 2 3 4 5 6 7 8 9 10 11 12 13 14 15 16 17 18 19 20 21 22 23 24 25 26 27 28 29 30 31 32 33 34 35 36 37 38 39 40 41 42 43 44 45 46 47 48 49 50
849
AXUS43 KLBF 191610
MISLBF


WESTERN AND NORTH CENTRAL NEBRASKA HOURLY WEATHER ROUNDUP
NATIONAL WEATHER SERVICE NORTH PLATTE NE
1000 AM CST SUN FEB 19 2017

NOTE: "FAIR" INDICATES FEW OR NO CLOUDS BELOW 12,000 FEET WITH NO
SIGNIFICANT WEATHER AND/OR OBSTRUCTIONS TO VISIBILITY.

NOTE: STATIONS NOT REPORTING VARIABLES SUCH AS SKY/WEATHER OR
PRESSURE ARE PROVIDED BY RAWS AND APRS NETWORKS AND ARE NOT UNDER
NATIONAL WEATHER SERVICE QUALITY CONTROL.

...OBSERVATIONS IN AND NEAR THE EASTERN PANHANDLE OF NEBRASKA...

CITY           SKY/WX    TMP DP  RH WIND       PRES   REMARKS
PINE RIDGE     SUNNY     47  35  63 SW7       29.60F
CHADRON        SUNNY     49  32  52 W5        29.60F
ALLIANCE       CLOUDY    37  31  78 CALM      29.65S
SIDNEY         CLOUDY    44  30  57 W7        29.68S
CRESCENT LAKE    N/A     45  32  59 CALM        N/A
$$

...OBSERVATIONS IN NORTHERN NEBRASKA AND FAR SOUTHERN SOUTH DAKOTA...

CITY           SKY/WX    TMP DP  RH WIND       PRES   REMARKS
WINNER         FAIR      58  39  49 S15G24    29.61F
VALENTINE      SUNNY     50  35  56 SW17G26   29.64R
THEDFORD       MOSUNNY   51  40  65 S18       29.69R
AINSWORTH      CLOUDY    53  41  63 S18       29.67S
O`NEILL        MOSUNNY   53  46  76 S15G22    29.72F
ORD            MOSUNNY   51  45  79 S16G24    29.74F
BROKEN BOW     SUNNY     51  45  79 S17G24    29.74S
VALENTINE NWR    N/A     44  36  74 S9          N/A
HALSEY           N/A     51  40  66 S8G18       N/A
CHAMBERS         N/A     53  47  80 SW6         N/A
EWING            N/A     50  46  87 S9          N/A
$$

...OBSERVATIONS IN SOUTHWEST NEBRASKA AND FAR NORTHEAST COLORADO...

CITY           SKY/WX    TMP DP  RH WIND       PRES   REMARKS
HOLYOKE        FAIR      45  32  61 CALM      29.71S
IMPERIAL       CLOUDY    49  35  58 SW9       29.72R
OGALLALA       CLOUDY    49  37  61 S13       29.69F
NORTH PLATTE   PTSUNNY   51  43  74 S7        29.73R
MCCOOK         CLOUDY    52  46  80 S10       29.75R
LEXINGTON      CLOUDY    52  47  82 S16       29.76S
STAPLETON        N/A     51  43  75 CALM        N/A
GOTHENBURG       N/A     50  43  77 E6          N/A
CALLAWAY         N/A     50  45  84 S21         N/A
$$

...OBSERVATIONS IN CENTRAL LINCOLN COUNTY AREA...

CITY           SKY/WX    TMP DP  RH WIND       PRES   REMARKS
N.P. AIRPORT   PTSUNNY   51  43  74 S7        29.73R
N.P. DOWNTOWN    N/A     51  44  76 S5          N/A
N.P. SOUTHEAST   N/A     51  43  74 SW5         N/A
N.P. HILLCREST   N/A     50  43  77 SW6         N/A
$$

...SOME OBSERVATIONS FROM AROUND THE REGION...

CITY           SKY/WX    TMP DP  RH WIND       PRES   REMARKS
LARAMIE        CLOUDY    33  28  81 SW3       29.72R
CHEYENNE       CLOUDY    45  25  45 S6        29.70R
DENVER         CLOUDY    48  24  39 E3        29.70F
AKRON          CLOUDY    48  27  44 W12       29.69S
SCOTTSBLUFF    CLOUDY    38  29  70 CALM      29.67R
RAPID CITY     SUNNY     43  31  62 SE5       29.55S
BISMARCK       MOSUNNY   37  33  85 NE5       29.58F WCI  33
PIERRE         CLOUDY    47  36  65 SE10      29.58F
SIOUX FALLS    CLOUDY    49  40  71 S13G18    29.79S
OMAHA          PTSUNNY   54  45  71 S13       29.90R
GRAND ISLAND   CLOUDY    52  49  89 S14       29.81F
KANSAS CITY    MOSUNNY   60  53  77 S12       29.97F
WICHITA        FOG       52  52 100 S13       29.92S VSB 1/4
OKLAHOMA CITY  CLOUDY    59  58  96 S17G24    29.93R FOG
DALLAS         FOG       66  65  96 SE12      29.91R VSB 1
AMARILLO       MOSUNNY   53  51  93 SE21      29.84S
DODGE CITY     MOSUNNY   51  49  92 S15       29.87R FOG
HAYS           CLOUDY    50  49  96 S13       29.86R FOG
GOODLAND       CLOUDY    55  37  50 S21       29.72S
$$




USA.gov is the U.S. government's official web portal to all federal, state and local government web resources and services.